Lumberton, NC

6:25 PM EDT on April 21, 2018 (GMT -0400)
Lumberton Municipal

Weather History for KLBT - April, 2014

Change the Weather History Date:

Sunday, April 27, 2014

  Actual Average Record
Temperature  
Mean Temperature 66 °F 64 °F  
Max Temperature 84 °F 78 °F 87 °F (2016)
Min Temperature 47 °F 52 °F 35 °F (2001)
Degree Days  
Heating Degree Days 0 3  
Month to date heating degree days 120 144  
Since 1 July heating degree days 2928 2720  
Cooling Degree Days 1 3  
Month to date cooling degree days 23 47  
Year to date cooling degree days 25 60  
Growing Degree Days 14 (Base 50)    
Moisture  
Dew Point 53 °F    
Average Humidity 65    
Maximum Humidity 93    
Minimum Humidity 37    
Precipitation  
Precipitation 0.00 in 0.08 in 0.90 in (2007)
Month to date precipitation 3.12 2.60  
Year to date precipitation 12.61 11.80  
Sea Level Pressure  
Sea Level Pressure 29.97 in    
Wind  
Wind Speed 4 mph (SW)    
Max Wind Speed 15 mph    
Max Gust Speed 18 mph    
Visibility 10 miles    
Events      
T = Trace of Precipitation, MM = Missing Value Source: NWS Daily Summary

Daily Weather History Graph

Daily Weather History Graph

Search for Another Location

Airport or City:

Astronomy

Apr. 27, 2014 Rise Set
Actual Time 6:30 AM EDT 7:57 PM EDT
Civil Twilight 6:03 AM EDT 8:24 PM EDT
Nautical Twilight 5:31 AM EDT 8:56 PM EDT
Astronomical Twilight 4:58 AM EDT 9:30 PM EDT
Moon 5:24 AM EDT (4/27) 6:33 PM EDT (4/27)
Length of Visible Light 14h 20m
Length of Day
13h 27m
Waning Crescent, 3% of the Moon is Illuminated
Apr 27
Waning Crescent
Apr 29
New
May 6
First Quarter
May 14
Full
May 21
Last Quarter

Hourly Weather History & Observations

Time (EDT) Temp. Heat Index Dew Point Humidity Pressure Visibility Wind Dir Wind Speed Gust Speed Precip Events Conditions
12:54 AM 59.0 °F - 42.1 °F 53% 29.98 in 10.0 mi SSW 5.8 mph - N/A   Clear
1:54 AM 54.0 °F - 44.1 °F 69% 29.97 in 10.0 mi Calm Calm - N/A   Clear
2:54 AM 48.9 °F - 45.0 °F 86% 29.96 in 10.0 mi WSW 3.5 mph - N/A   Clear
3:54 AM 52.0 °F - 46.0 °F 80% 29.96 in 10.0 mi WSW 3.5 mph - N/A   Clear
4:54 AM 46.9 °F - 45.0 °F 93% 29.97 in 10.0 mi Calm Calm - N/A   Clear
5:54 AM 46.9 °F - 44.1 °F 90% 29.98 in 10.0 mi Calm Calm - N/A   Clear
6:54 AM 48.0 °F - 46.9 °F 96% 30.00 in 10.0 mi Calm Calm - N/A   Clear
7:54 AM 57.9 °F - 53.1 °F 84% 30.01 in 10.0 mi WSW 4.6 mph - N/A   Clear
8:54 AM 66.0 °F - 55.0 °F 68% 30.02 in 10.0 mi WSW 8.1 mph - N/A   Clear
9:54 AM 71.1 °F - 55.9 °F 59% 30.02 in 10.0 mi West 9.2 mph - N/A   Clear
10:54 AM 75.0 °F - 57.0 °F 53% 30.03 in 10.0 mi WSW 10.4 mph - N/A   Clear
11:54 AM 78.1 °F - 57.0 °F 48% 30.01 in 10.0 mi Variable 5.8 mph - N/A   Clear
12:54 PM 81.0 °F 81.1 °F 57.9 °F 45% 29.98 in 10.0 mi SW 6.9 mph - N/A   Clear
1:54 PM 82.9 °F 82.1 °F 55.9 °F 39% 29.96 in 10.0 mi Variable 5.8 mph - N/A   Clear
2:54 PM 82.9 °F 82.1 °F 55.9 °F 39% 29.95 in 10.0 mi Variable 3.5 mph - N/A   Clear
4:54 PM 82.9 °F 82.0 °F 55.0 °F 38% 29.91 in 10.0 mi SW 4.6 mph - N/A   Clear
5:54 PM 81.0 °F 80.7 °F 55.0 °F 41% 29.92 in 10.0 mi SSW 5.8 mph - N/A   Clear
6:54 PM 81.0 °F 81.0 °F 57.0 °F 44% 29.92 in 10.0 mi SSW 3.5 mph - N/A   Clear
7:54 PM 75.0 °F - 57.0 °F 53% 29.94 in 10.0 mi South 3.5 mph - N/A   Clear
8:54 PM 73.0 °F - 57.9 °F 59% 29.94 in 10.0 mi Calm Calm - N/A   Clear
9:54 PM 70.0 °F - 55.0 °F 59% 29.96 in 10.0 mi SSE 4.6 mph - N/A   Clear
10:54 PM 68.0 °F - 55.0 °F 63% 29.96 in 10.0 mi SSE 3.5 mph - N/A   Clear
11:54 PM 66.0 °F - 55.0 °F 68% 29.97 in 10.0 mi South 4.6 mph - N/A   Clear